Location: *
(45.8589°N, 4.7139°E)
Time: 16:41:12
(UTC+00:00)

Cosmos 2208 Rocket - Pass Details

Date: 09 April 2020
Orbit: 754 x 806 km, 74.0° (Epoch: 04 June)

Event Time Altitude Azimuth Distance (km) Brightness Sun altitude
Rises 21:29:03 0° 335° (NNW) 3,225 8.4 -28.4°
Reaches altitude 10° 21:31:26 10° 332° (NNW) 2,300 7.4 -28.7°
Enters shadow 21:36:07 59° 279° (W) 881 4.4 -29.2°
